Time,TemperatureF,DewpointF,PressureIn,WindDirection,WindDirectionDegrees,WindSpeedMPH,WindSpeedGustMPH,Humidity,HourlyPrecipIn,Conditions,Clouds,dailyrainin,SoftwareType,DateUTC
2013-04-13 00:00:00,43.0,41.0,-100.00,NE,39,5.0,16.0,94,-99.99,,,-99.99,,2013-04-13 04:00:00,
2013-04-13 00:33:00,43.0,41.0,-100.00,NE,39,5.0,16.0,94,-99.99,,,-99.99,,2013-04-13 04:33:00,
2013-04-13 00:42:00,43.0,41.0,-100.00,NE,39,5.0,16.0,94,-99.99,,,-99.99,,2013-04-13 04:42:00,
2013-04-13 00:53:00,43.0,41.0,-100.00,NE,39,5.0,16.0,94,-99.99,,,-99.99,,2013-04-13 04:53:00,
2013-04-13 01:00:00,43.0,41.0,-100.00,NNE,27,5.0,15.0,93,-99.99,,,-99.99,,2013-04-13 05:00:00,
2013-04-13 01:23:00,43.0,41.0,-100.00,NNE,27,5.0,15.0,93,-99.99,,,-99.99,,2013-04-13 05:23:00,
2013-04-13 01:32:00,43.0,41.0,-100.00,NNE,27,5.0,15.0,93,-99.99,,,-99.99,,2013-04-13 05:32:00,
2013-04-13 01:43:00,43.0,41.0,-100.00,NNE,27,5.0,15.0,93,-99.99,,,-99.99,,2013-04-13 05:43:00,
2013-04-13 01:53:00,43.0,41.0,-100.00,NNE,27,5.0,15.0,93,-99.99,,,-99.99,,2013-04-13 05:53:00,
2013-04-13 02:36:00,43.0,41.0,-100.00,North,354,2.0,13.0,92,-99.99,,,-99.99,,2013-04-13 06:36:00,
2013-04-13 02:49:00,43.0,41.0,-100.00,North,354,2.0,13.0,92,-99.99,,,-99.99,,2013-04-13 06:49:00,
2013-04-13 02:56:00,43.0,41.0,-100.00,North,354,2.0,13.0,92,-99.99,,,-99.99,,2013-04-13 06:56:00,
2013-04-13 03:00:00,43.0,40.0,-100.00,NNW,342,5.0,12.0,90,-99.99,,,-99.99,,2013-04-13 07:00:00,
2013-04-13 03:46:00,43.0,40.0,-100.00,NNW,342,5.0,12.0,90,-99.99,,,-99.99,,2013-04-13 07:46:00,
2013-04-13 03:57:00,43.0,40.0,-100.00,NNW,342,5.0,12.0,90,-99.99,,,-99.99,,2013-04-13 07:57:00,
2013-04-13 04:00:00,43.0,39.0,-100.00,NNW,330,5.0,12.0,88,-99.99,,,-99.99,,2013-04-13 08:00:00,
2013-04-13 04:27:00,43.0,39.0,-100.00,NNW,330,5.0,12.0,88,-99.99,,,-99.99,,2013-04-13 08:27:00,
2013-04-13 04:35:00,43.0,39.0,-100.00,NNW,330,5.0,12.0,88,-99.99,,,-99.99,,2013-04-13 08:35:00,
2013-04-13 04:47:00,43.0,39.0,-100.00,NNW,330,5.0,12.0,88,-99.99,,,-99.99,,2013-04-13 08:47:00,
2013-04-13 04:55:00,43.0,39.0,-100.00,NNW,330,5.0,12.0,88,-99.99,,,-99.99,,2013-04-13 08:55:00,
2013-04-13 05:00:00,43.0,40.0,-100.00,NNE,13,5.0,9.0,89,-99.99,,,-99.99,,2013-04-13 09:00:00,
2013-04-13 05:25:00,43.0,40.0,-100.00,NNE,13,5.0,9.0,89,-99.99,,,-99.99,,2013-04-13 09:25:00,
2013-04-13 05:38:00,43.0,40.0,-100.00,NNE,13,5.0,9.0,89,-99.99,,,-99.99,,2013-04-13 09:38:00,
2013-04-13 05:53:00,43.0,40.0,-100.00,NNE,13,5.0,9.0,89,-99.99,,,-99.99,,2013-04-13 09:53:00,
2013-04-13 06:00:00,41.0,38.0,-100.00,North,1,0.0,8.0,89,-99.99,,,-99.99,,2013-04-13 10:00:00,
2013-04-13 06:25:00,41.0,38.0,-100.00,North,1,0.0,8.0,89,-99.99,,,-99.99,,2013-04-13 10:25:00,
2013-04-13 06:38:00,41.0,38.0,-100.00,North,1,0.0,8.0,89,-99.99,,,-99.99,,2013-04-13 10:38:00,
2013-04-13 06:51:00,41.0,38.0,-100.00,North,1,0.0,8.0,89,-99.99,,,-99.99,,2013-04-13 10:51:00,
2013-04-13 07:00:00,41.0,38.0,-100.00,NW,308,0.0,5.0,90,-99.99,,,-99.99,,2013-04-13 11:00:00,
2013-04-13 07:35:00,41.0,38.0,-100.00,NW,308,0.0,5.0,90,-99.99,,,-99.99,,2013-04-13 11:35:00,
2013-04-13 07:46:00,41.0,38.0,-100.00,NW,308,0.0,5.0,90,-99.99,,,-99.99,,2013-04-13 11:46:00,
2013-04-13 07:54:00,41.0,38.0,-100.00,NW,308,0.0,5.0,90,-99.99,,,-99.99,,2013-04-13 11:54:00,
2013-04-13 08:25:00,46.0,42.0,-100.00,South,180,0.0,5.0,86,-99.99,,,-99.99,,2013-04-13 12:25:00,
2013-04-13 08:37:00,46.0,42.0,-100.00,South,180,0.0,5.0,86,-99.99,,,-99.99,,2013-04-13 12:37:00,
2013-04-13 08:49:00,46.0,42.0,-100.00,South,180,0.0,5.0,86,-99.99,,,-99.99,,2013-04-13 12:49:00,
2013-04-13 08:56:00,46.0,42.0,-100.00,South,180,0.0,5.0,86,-99.99,,,-99.99,,2013-04-13 12:56:00,
2013-04-13 09:00:00,47.0,40.0,-100.00,NW,316,3.0,5.0,76,-99.99,,,-99.99,,2013-04-13 13:00:00,
2013-04-13 09:37:00,47.0,40.0,-100.00,NW,316,3.0,5.0,76,-99.99,,,-99.99,,2013-04-13 13:37:00,
2013-04-13 09:49:00,47.0,40.0,-100.00,NW,316,3.0,5.0,76,-99.99,,,-99.99,,2013-04-13 13:49:00,
2013-04-13 09:57:00,47.0,40.0,-100.00,NW,316,3.0,5.0,76,-99.99,,,-99.99,,2013-04-13 13:57:00,
2013-04-13 10:00:00,50.0,40.0,-100.00,NNW,340,5.0,11.0,69,-99.99,,,-99.99,,2013-04-13 14:00:00,
2013-04-13 10:24:00,50.0,40.0,-100.00,NNW,340,5.0,11.0,69,-99.99,,,-99.99,,2013-04-13 14:24:00,
2013-04-13 10:39:00,50.0,40.0,-100.00,NNW,340,5.0,11.0,69,-99.99,,,-99.99,,2013-04-13 14:39:00,
2013-04-13 10:48:00,50.0,40.0,-100.00,NNW,340,5.0,11.0,69,-99.99,,,-99.99,,2013-04-13 14:48:00,
2013-04-13 12:00:00,49.0,41.0,-100.00,SSE,158,4.0,9.0,73,-99.99,,,-99.99,,2013-04-13 16:00:00,
2013-04-13 12:25:00,49.0,41.0,-100.00,SSE,158,4.0,9.0,73,-99.99,,,-99.99,,2013-04-13 16:25:00,
2013-04-13 12:37:00,49.0,41.0,-100.00,SSE,158,4.0,9.0,73,-99.99,,,-99.99,,2013-04-13 16:37:00,
2013-04-13 12:48:00,49.0,41.0,-100.00,SSE,158,4.0,9.0,73,-99.99,,,-99.99,,2013-04-13 16:48:00,
2013-04-13 12:58:00,49.0,41.0,-100.00,SSE,158,4.0,9.0,73,-99.99,,,-99.99,,2013-04-13 16:58:00,
2013-04-13 13:00:00,49.0,41.0,-100.00,SE,134,4.0,11.0,72,-99.99,,,-99.99,,2013-04-13 17:00:00,
2013-04-13 13:38:00,49.0,41.0,-100.00,SE,134,4.0,11.0,72,-99.99,,,-99.99,,2013-04-13 17:38:00,
2013-04-13 13:45:00,49.0,41.0,-100.00,SE,134,4.0,11.0,72,-99.99,,,-99.99,,2013-04-13 17:45:00,
2013-04-13 14:00:00,50.0,41.0,-100.00,SE,142,7.0,11.0,72,-99.99,,,-99.99,,2013-04-13 18:00:00,
2013-04-13 14:25:00,50.0,41.0,-100.00,SE,142,7.0,11.0,72,-99.99,,,-99.99,,2013-04-13 18:25:00,
2013-04-13 14:33:00,50.0,41.0,-100.00,SE,142,7.0,11.0,72,-99.99,,,-99.99,,2013-04-13 18:33:00,
2013-04-13 14:42:00,50.0,41.0,-100.00,SE,142,7.0,11.0,72,-99.99,,,-99.99,,2013-04-13 18:42:00,
2013-04-13 14:53:00,50.0,41.0,-100.00,SE,142,7.0,11.0,72,-99.99,,,-99.99,,2013-04-13 18:53:00,
2013-04-13 15:00:00,50.0,39.0,-100.00,South,174,11.0,12.0,67,-99.99,,,-99.99,,2013-04-13 19:00:00,
2013-04-13 15:23:00,50.0,39.0,-100.00,South,174,11.0,12.0,67,-99.99,,,-99.99,,2013-04-13 19:23:00,
2013-04-13 15:33:00,50.0,39.0,-100.00,South,174,11.0,12.0,67,-99.99,,,-99.99,,2013-04-13 19:33:00,
2013-04-13 15:42:00,50.0,39.0,-100.00,South,174,11.0,12.0,67,-99.99,,,-99.99,,2013-04-13 19:42:00,
2013-04-13 15:53:00,50.0,39.0,-100.00,South,174,11.0,12.0,67,-99.99,,,-99.99,,2013-04-13 19:53:00,
2013-04-13 16:00:00,49.0,41.0,-100.00,SSE,151,5.0,13.0,73,-99.99,,,-99.99,,2013-04-13 20:00:00,
2013-04-13 16:32:00,49.0,41.0,-100.00,SSE,151,5.0,13.0,73,-99.99,,,-99.99,,2013-04-13 20:32:00,
2013-04-13 16:42:00,49.0,41.0,-100.00,SSE,151,5.0,13.0,73,-99.99,,,-99.99,,2013-04-13 20:42:00,
2013-04-13 16:53:00,49.0,41.0,-100.00,SSE,151,5.0,13.0,73,-99.99,,,-99.99,,2013-04-13 20:53:00,
2013-04-13 17:00:00,49.0,40.0,-100.00,SSE,163,14.0,16.0,72,-99.99,,,-99.99,,2013-04-13 21:00:00,
2013-04-13 17:22:00,49.0,40.0,-100.00,SSE,163,14.0,16.0,72,-99.99,,,-99.99,,2013-04-13 21:22:00,
2013-04-13 17:33:00,49.0,40.0,-100.00,SSE,163,14.0,16.0,72,-99.99,,,-99.99,,2013-04-13 21:33:00,
2013-04-13 17:43:00,49.0,40.0,-100.00,SSE,163,14.0,16.0,72,-99.99,,,-99.99,,2013-04-13 21:43:00,
2013-04-13 17:53:00,49.0,40.0,-100.00,SSE,163,14.0,16.0,72,-99.99,,,-99.99,,2013-04-13 21:53:00,
2013-04-13 18:00:00,50.0,39.0,-100.00,South,188,11.0,17.0,66,-99.99,,,-99.99,,2013-04-13 22:00:00,
2013-04-13 18:23:00,50.0,39.0,-100.00,South,188,11.0,17.0,66,-99.99,,,-99.99,,2013-04-13 22:23:00,
2013-04-13 18:33:00,50.0,39.0,-100.00,South,188,11.0,17.0,66,-99.99,,,-99.99,,2013-04-13 22:33:00,
2013-04-13 18:42:00,50.0,39.0,-100.00,South,188,11.0,17.0,66,-99.99,,,-99.99,,2013-04-13 22:42:00,
2013-04-13 18:53:00,50.0,39.0,-100.00,South,188,11.0,17.0,66,-99.99,,,-99.99,,2013-04-13 22:53:00,
2013-04-13 19:00:00,49.0,40.0,-100.00,South,186,5.0,15.0,70,-99.99,,,-99.99,,2013-04-13 23:00:00,
2013-04-13 19:33:00,49.0,40.0,-100.00,South,186,5.0,15.0,70,-99.99,,,-99.99,,2013-04-13 23:33:00,
2013-04-13 19:43:00,49.0,40.0,-100.00,South,186,5.0,15.0,70,-99.99,,,-99.99,,2013-04-13 23:43:00,
2013-04-13 19:53:00,49.0,40.0,-100.00,South,186,5.0,15.0,70,-99.99,,,-99.99,,2013-04-13 23:53:00,
2013-04-13 20:00:00,48.0,42.0,-100.00,South,180,9.0,14.0,80,-99.99,,,-99.99,,2013-04-14 00:00:00,
2013-04-13 20:22:00,48.0,42.0,-100.00,South,180,9.0,14.0,80,-99.99,,,-99.99,,2013-04-14 00:22:00,
2013-04-13 20:32:00,48.0,42.0,-100.00,South,180,9.0,14.0,80,-99.99,,,-99.99,,2013-04-14 00:32:00,
2013-04-13 20:42:00,48.0,42.0,-100.00,South,180,9.0,14.0,80,-99.99,,,-99.99,,2013-04-14 00:42:00,
2013-04-13 20:52:00,48.0,42.0,-100.00,South,180,9.0,14.0,80,-99.99,,,-99.99,,2013-04-14 00:52:00,
2013-04-13 21:00:00,47.0,43.0,-100.00,South,188,5.0,13.0,87,-99.99,,,-99.99,,2013-04-14 01:00:00,
2013-04-13 21:23:00,47.0,43.0,-100.00,South,188,5.0,13.0,87,-99.99,,,-99.99,,2013-04-14 01:23:00,
2013-04-13 21:33:00,47.0,43.0,-100.00,South,188,5.0,13.0,87,-99.99,,,-99.99,,2013-04-14 01:33:00,
2013-04-13 21:43:00,47.0,43.0,-100.00,South,188,5.0,13.0,87,-99.99,,,-99.99,,2013-04-14 01:43:00,
2013-04-13 21:53:00,47.0,43.0,-100.00,South,188,5.0,13.0,87,-99.99,,,-99.99,,2013-04-14 01:53:00,
2013-04-13 22:00:00,46.0,43.0,-100.00,SSW,205,0.0,10.0,90,-99.99,,,-99.99,,2013-04-14 02:00:00,
2013-04-13 22:22:00,46.0,43.0,-100.00,SSW,205,0.0,10.0,90,-99.99,,,-99.99,,2013-04-14 02:22:00,
2013-04-13 22:33:00,46.0,43.0,-100.00,SSW,205,0.0,10.0,90,-99.99,,,-99.99,,2013-04-14 02:33:00,
2013-04-13 22:43:00,46.0,43.0,-100.00,SSW,205,0.0,10.0,90,-99.99,,,-99.99,,2013-04-14 02:43:00,
2013-04-13 22:53:00,46.0,43.0,-100.00,SSW,205,0.0,10.0,90,-99.99,,,-99.99,,2013-04-14 02:53:00,
2013-04-13 23:00:00,44.0,42.0,-100.00,NNE,15,0.0,4.0,92,-99.99,,,-99.99,,2013-04-14 03:00:00,
2013-04-13 23:22:00,44.0,42.0,-100.00,NNE,15,0.0,4.0,92,-99.99,,,-99.99,,2013-04-14 03:22:00,
2013-04-13 23:33:00,44.0,42.0,-100.00,NNE,15,0.0,4.0,92,-99.99,,,-99.99,,2013-04-14 03:33:00,
2013-04-13 23:43:00,44.0,42.0,-100.00,NNE,15,0.0,4.0,92,-99.99,,,-99.99,,2013-04-14 03:43:00,
2013-04-13 23:53:00,44.0,42.0,-100.00,NNE,15,0.0,4.0,92,-99.99,,,-99.99,,2013-04-14 03:53:00,